KE0MVE Weather Reports


time (UTC)temp
C
wind
direction
speed
KPH
gust
KPH
rain 1hr
cm
rain 24hr
cm
rain mn
cm
humidity
%
barometer
mb
20220930010049 16 223 0.0 6.4 0.00 0.00 0.00 42 989.7
20220930004531 17 87 0.0 4.8 0.00 0.00 0.00 42 989.7
20220930003043 17 225 0.0 8.0 0.00 0.00 0.00 41 989.8
20220930001538 17 96 0.0 8.0 0.00 0.00 0.00 40 989.8
20220930000039 18 165 1.6 11.3 0.00 0.00 0.00 38 990.0
20220929234630 18 120 1.6 8.0 0.00 0.00 0.00 36 989.7
20220929233033 18 176 3.2 14.5 0.00 0.00 0.00 35 989.6
20220929231523 19 118 4.8 19.3 0.00 0.00 0.00 34 989.8
20220929230041 20 145 3.2 14.5 0.00 0.00 0.00 33 990.0
20220929224525 20 253 6.4 17.7 0.00 0.00 0.00 33 990.2
20220929223005 20 95 3.2 14.5 0.00 0.00 0.00 34 990.4
20220929221501 20 102 4.8 11.3 0.00 0.00 0.00 33 990.7
20220929220059 20 101 1.6 14.5 0.00 0.00 0.00 36 990.9
20220929214615 20 154 3.2 9.7 0.00 0.00 0.00 34 991.1
20220929213106 20 283 3.2 17.7 0.00 0.00 0.00 35 991.3
20220929211557 20 155 4.8 17.7 0.00 0.00 0.00 34 991.4
20220929210108 20 199 1.6 17.7 0.00 0.00 0.00 35 991.5
20220929204635 20 196 4.8 14.5 0.00 0.00 0.00 35 991.5
20220929203028 20 222 4.8 20.9 0.00 0.00 0.00 37 991.6
20220929201527 20 217 6.4 12.9 0.00 0.00 0.00 36 991.8
20220929200008 20 231 6.4 16.1 0.00 0.00 0.00 36 992.0
20220929194511 19 99 4.8 14.5 0.00 0.00 0.00 40 992.2
20220929193102 19 80 3.2 14.5 0.00 0.00 0.00 42 992.4
20220929191550 18 88 3.2 16.1 0.00 0.00 0.00 42 992.7
20220929190053 18 136 3.2 17.7 0.00 0.00 0.00 44 992.8
20220929184543 18 135 4.8 16.1 0.00 0.00 0.00 43 993.0
20220929183043 18 167 4.8 16.1 0.00 0.00 0.00 44 993.3
20220929181549 18 235 4.8 14.5 0.00 0.00 0.00 46 993.3
20220929180033 17 155 4.8 11.3 0.00 0.00 0.00 45 994.1
20220929174536 17 221 4.8 17.7 0.00 0.00 0.00 49 994.3
20220929173018 16 250 9.7 22.5 0.00 0.00 0.00 48 994.3
20220929171532 16 161 11.3 25.7 0.00 0.00 0.00 48 994.4
20220929170052 16 59 4.8 12.9 0.00 0.00 0.00 50 994.6
20220929164610 16 144 3.2 19.3 0.00 0.00 0.00 52 994.9
20220929163056 15 261 6.4 17.7 0.00 0.00 0.00 53 995.0
20220929161550 15 181 4.8 20.9 0.00 0.00 0.00 55 995.2
20220929160045 15 231 4.8 14.5 0.00 0.00 0.00 56 995.3
20220929154544 13 240 8.0 17.7 0.00 0.00 0.00 58 995.7
20220929153043 13 226 6.4 14.5 0.00 0.00 0.00 59 995.8
20220929151548 13 230 3.2 14.5 0.00 0.00 0.00 61 995.4
20220929150024 12 222 4.8 16.1 0.00 0.00 0.00 63 995.9
20220929144523 11 217 1.6 16.1 0.00 0.00 0.00 64 996.1
20220929143005 11 233 4.8 9.7 0.00 0.00 0.00 64 996.2
20220929141505 10 240 3.2 12.9 0.00 0.00 0.00 66 996.1
20220929140048 9 219 4.8 9.7 0.00 0.00 0.00 68 995.7
20220929134602 8 201 1.6 8.0 0.00 0.00 0.00 71 996.3
20220929133033 7 143 0.0 6.4 0.00 0.00 0.00 74 995.8
20220929131535 6 137 0.0 4.8 0.00 0.00 0.00 82 995.9
20220929130011 3 99 0.0 3.2 0.00 0.00 0.00 88 996.5
20220929124510 3 110 0.0 1.6 0.00 0.00 0.00 88 995.9
20220929123054 3 110 0.0 0.0 0.00 0.00 0.00 89 996.0
20220929121605 3 110 0.0 0.0 0.00 0.00 0.00 89 996.3
20220929120100 3 110 0.0 0.0 0.00 0.00 0.00 90 995.9
20220929114539 2 110 0.0 0.0 0.00 0.00 0.00 91 996.2
20220929113017 2 110 0.0 0.0 0.00 0.00 0.00 91 995.9
20220929111516 2 110 0.0 0.0 0.00 0.00 0.00 91 995.9
20220929110008 2 110 0.0 0.0 0.00 0.00 0.00 91 996.3
20220929104502 2 110 0.0 0.0 0.00 0.00 0.00 92 996.0
20220929103005 2 110 0.0 0.0 0.00 0.00 0.00 92 996.0
20220929101600 2 110 0.0 0.0 0.00 0.00 0.00 92 996.5
20220929100108 2 110 0.0 0.0 0.00 0.00 0.00 91 996.0
20220929094557 2 110 0.0 0.0 0.00 0.00 0.00 91 996.4
20220929093056 2 110 0.0 0.0 0.00 0.00 0.00 92 996.1
20220929091604 2 110 0.0 0.0 0.00 0.00 0.00 91 996.0
20220929090044 2 110 0.0 0.0 0.00 0.00 0.00 91 996.4
20220929084541 2 110 0.0 0.0 0.00 0.00 0.00 91 996.3
20220929083040 2 110 0.0 0.0 0.00 0.00 0.00 91 996.4
20220929081538 2 110 0.0 0.0 0.00 0.00 0.00 91 997.1
20220929080038 3 110 0.0 0.0 0.00 0.00 0.00 91 996.7
20220929074541 3 110 0.0 0.0 0.00 0.00 0.00 91 997.1
20220929073050 3 110 0.0 0.0 0.00 0.00 0.00 91 996.9
20220929071536 3 110 0.0 0.0 0.00 0.00 0.00 91 996.8
20220929070019 2 110 0.0 0.0 0.00 0.00 0.00 90 997.3
20220929064521 3 110 0.0 0.0 0.00 0.00 0.00 89 996.9
20220929063005 3 110 0.0 0.0 0.00 0.00 0.00 89 997.2
20220929061503 3 110 0.0 0.0 0.00 0.00 0.00 88 997.4
20220929060010 3 110 0.0 0.0 0.00 0.00 0.00 88 996.8
20220929054607 3 110 0.0 0.0 0.00 0.00 0.00 87 997.0
20220929053057 3 110 0.0 0.0 0.00 0.00 0.00 86 996.9
20220929051556 3 110 0.0 0.0 0.00 0.00 0.00 85 997.1
20220929050055 4 110 0.0 0.0 0.00 0.00 0.00 84 997.6
20220929044552 4 110 0.0 0.0 0.00 0.00 0.00 84 997.0
20220929043039 5 110 0.0 0.0 0.00 0.00 0.00 83 997.4
20220929041537 5 110 0.0 0.0 0.00 0.00 0.00 81 997.2
20220929040127 5 110 0.0 0.0 0.00 0.00 0.00 80 997.1
20220929034550 6 110 0.0 0.0 0.00 0.00 0.00 80 997.6
20220929033031 6 110 0.0 0.0 0.00 0.00 0.00 79 997.2
20220929031535 6 110 0.0 0.0 0.00 0.00 0.00 79 997.6
20220929030030 6 110 0.0 0.0 0.00 0.00 0.00 81 997.4
20220929024541 6 110 0.0 0.0 0.00 0.00 0.00 79 997.1
20220929023007 6 110 0.0 0.0 0.00 0.00 0.00 77 997.7
20220929021507 7 110 0.0 0.0 0.00 0.00 0.00 76 997.1
20220929020105 7 110 0.0 0.0 0.00 0.00 0.00 73 997.2
20220929014557 7 110 0.0 0.0 0.00 0.00 0.00 71 997.6
20220929013056 8 110 0.0 0.0 0.00 0.00 0.00 69 997.0
20220929011544 8 110 0.0 0.0 0.00 0.00 0.00 68 997.0